This is the latest recevied weather packets stored in our database for station/object HB9HFD-13. If no packets are shown the sender has not sent any weather packets the latest 10 day(s).
| Time | Temp. | Humidity | Pressure | Rain* | Wind** | Luminosity | Snow |
|---|---|---|---|---|---|---|---|
| 1778161048 | 19.44° C | 50% | 1011.2 hPa | 0 mm | - | - | - |
| 1778160747 | 18.89° C | 48% | 1011.1 hPa | 0 mm | - | - | - |
| 1778160447 | 18.89° C | 50% | 1011.3 hPa | 0 mm | - | - | - |
| 1778160146 | 19.44° C | 50% | 1011.3 hPa | 0 mm | - | - | - |
| 1778159846 | 19.44° C | 52% | 1011.3 hPa | 0 mm | - | - | - |
| 1778159546 | 19.44° C | 53% | 1011.4 hPa | 0 mm | - | - | - |
| 1778159246 | 18.89° C | 52% | 1011.5 hPa | 0 mm | - | - | - |
| 1778158945 | 19.44° C | 49% | 1011.4 hPa | 0 mm | - | - | - |
| 1778158645 | 20° C | 50% | 1011.5 hPa | 0 mm | - | - | - |
| 1778158345 | 20° C | 53% | 1011.4 hPa | 0 mm | - | - | - |
| 1778158045 | 19.44° C | 56% | 1011.4 hPa | 0 mm | - | - | - |
| 1778157744 | 18.89° C | 54% | 1011.5 hPa | 0 mm | - | - | - |
| 1778157444 | 18.33° C | 55% | 1011.5 hPa | 0 mm | - | - | - |
| 1778157144 | 18.33° C | 59% | 1011.5 hPa | 0 mm | - | - | - |
| 1778156844 | 17.78° C | 60% | 1011.5 hPa | 0 mm | - | - | - |
| 1778156543 | 17.22° C | 62% | 1011.5 hPa | 0 mm | - | - | - |
| 1778156243 | 16.67° C | 61% | 1011.5 hPa | 0 mm | - | - | - |
| 1778155943 | 16.67° C | 61% | 1011.6 hPa | 0 mm | - | - | - |
| 1778155643 | 17.78° C | 60% | 1011.7 hPa | 0 mm | - | - | - |
| 1778155342 | 18.33° C | 59% | 1011.5 hPa | 0 mm | - | - | - |
| 1778155042 | 18.89° C | 59% | 1011.6 hPa | 0 mm | - | - | - |
| 1778154742 | 18.89° C | 59% | 1011.6 hPa | 0 mm | - | - | - |
| 1778154441 | 18.89° C | 61% | 1011.6 hPa | 0 mm | - | - | - |
| 1778154141 | 18.89° C | 62% | 1011.5 hPa | 0 mm | - | - | - |
| 1778153841 | 18.33° C | 61% | 1011.6 hPa | 0 mm | - | - | - |
* Rain latest hour (hover to see other rain measurements)
** Current wind speed in m/s (hover to see current wind gust speed)